Total_Precipitation_Accumulation
0.97 0.95 0.95 0.92 0.84 0.78 0.75 0.69 0.60 0.53 0.49 0.47 0.47 0.46 0.47 0.50 0.53 0.57 0.59 0.61 0.67 0.65 0.63 0.61 0.58 0.57 0.60 0.64 0.70 0.76 0.83 0.90 1.01 0.93 0.79 0.75 0.78 0.82 0.86 0.78 0.76 0.71 0.66
0.79 0.83 0.84 0.77 0.72 0.68 0.63 0.58 0.54 0.48 0.46 0.47 0.47 0.44 0.41 0.40 0.43 0.49 0.55 0.57 0.63 0.64 0.63 0.62 0.57 0.55 0.59 0.60 0.62 0.66 0.75 0.85 0.96 1.00 0.88 0.78 0.75 0.74 0.73 0.69 0.60 0.56 0.57
0.58 0.56 0.61 0.61 0.58 0.55 0.48 0.45 0.43 0.43 0.42 0.39 0.39 0.38 0.37 0.37 0.37 0.37 0.41 0.44 0.50 0.55 0.59 0.64 0.63 0.61 0.58 0.59 0.62 0.65 0.74 0.85 0.96 0.99 0.91 0.82 0.79 0.78 0.83 0.78 0.69 0.73 0.63
0.49 0.45 0.49 0.49 0.48 0.47 0.45 0.41 0.37 0.36 0.36 0.33 0.29 0.27 0.28 0.28 0.28 0.26 0.27 0.30 0.34 0.38 0.44 0.56 0.61 0.61 0.60 0.63 0.67 0.70 0.75 0.85 0.91 0.94 0.88 0.80 0.79 0.81 0.86 0.91 0.89 0.82 0.71
0.47 0.47 0.49 0.45 0.43 0.44 0.45 0.41 0.37 0.35 0.31 0.29 0.26 0.22 0.20 0.21 0.21 0.21 0.21 0.22 0.29 0.32 0.34 0.43 0.50 0.54 0.56 0.57 0.60 0.66 0.75 0.86 0.93 0.96 0.90 0.83 0.78 0.86 0.91 0.90 0.87 0.84 0.72
0.47 0.50 0.52 0.50 0.49 0.49 0.47 0.46 0.42 0.37 0.32 0.26 0.22 0.19 0.17 0.16 0.19 0.19 0.20 0.25 0.30 0.35 0.39 0.42 0.42 0.44 0.43 0.41 0.47 0.55 0.66 0.80 0.94 1.00 0.97 0.92 0.83 0.85 0.91 0.92 0.93 0.92 0.85
0.55 0.54 0.55 0.53 0.53 0.49 0.44 0.44 0.42 0.37 0.32 0.29 0.23 0.20 0.19 0.16 0.15 0.15 0.17 0.27 0.36 0.42 0.45 0.44 0.38 0.38 0.45 0.46 0.45 0.48 0.59 0.68 0.83 1.00 1.06 0.96 0.87 0.88 0.98 1.04 1.00 0.97 0.96
0.60 0.57 0.55 0.51 0.48 0.44 0.43 0.44 0.41 0.36 0.32 0.31 0.27 0.22 0.23 0.17 0.14 0.14 0.16 0.22 0.29 0.32 0.32 0.36 0.43 0.48 0.44 0.43 0.41 0.50 0.61 0.71 0.76 0.83 0.95 0.87 0.79 0.81 0.90 0.96 0.93 0.91 0.85
0.58 0.52 0.45 0.41 0.40 0.39 0.41 0.43 0.40 0.38 0.35 0.31 0.27 0.25 0.26 0.22 0.16 0.14 0.16 0.22 0.25 0.24 0.23 0.26 0.31 0.36 0.35 0.40 0.49 0.63 0.67 0.78 0.83 0.98 0.97 0.87 0.81 0.79 0.71 0.72 0.91 1.03 0.99
0.45 0.37 0.32 0.30 0.33 0.34 0.35 0.37 0.36 0.35 0.32 0.28 0.27 0.27 0.26 0.24 0.17 0.14 0.15 0.18 0.23 0.22 0.26 0.29 0.27 0.24 0.27 0.36 0.51 0.69 0.81 0.85 0.98 1.18 1.12 1.04 0.96 0.89 0.76 0.74 0.97 1.15 1.13
0.33 0.29 0.28 0.27 0.27 0.27 0.29 0.33 0.34 0.32 0.32 0.31 0.31 0.31 0.27 0.21 0.15 0.10 0.09 0.14 0.17 0.22 0.29 0.34 0.33 0.27 0.28 0.33 0.46 0.64 0.80 0.82 1.05 1.31 1.19 1.02 0.95 0.88 0.84 0.84 0.93 1.00 0.99
0.30 0.31 0.30 0.24 0.18 0.19 0.28 0.34 0.32 0.34 0.36 0.37 0.36 0.31 0.26 0.19 0.14 0.10 0.08 0.07 0.10 0.24 0.38 0.35 0.34 0.33 0.32 0.39 0.52 0.68 0.81 0.97 1.16 1.24 1.05 0.88 0.77 0.75 0.74 0.69 0.67 0.68 0.74
0.30 0.34 0.32 0.25 0.23 0.22 0.27 0.31 0.32 0.33 0.31 0.29 0.29 0.28 0.26 0.22 0.17 0.11 0.08 0.08 0.11 0.20 0.34 0.38 0.36 0.34 0.44 0.64 0.76 0.86 0.99 1.17 1.21 1.07 0.91 0.79 0.66 0.61 0.58 0.56 0.54 0.57 0.60
0.29 0.29 0.26 0.26 0.28 0.27 0.26 0.21 0.22 0.25 0.23 0.22 0.24 0.26 0.28 0.27 0.19 0.13 0.14 0.15 0.17 0.21 0.31 0.43 0.51 0.54 0.69 0.90 1.04 1.14 1.21 1.23 1.08 0.95 0.84 0.73 0.60 0.57 0.55 0.50 0.52 0.53 0.57
0.27 0.26 0.24 0.22 0.24 0.28 0.23 0.14 0.12 0.13 0.10 0.14 0.18 0.20 0.26 0.25 0.15 0.12 0.14 0.17 0.19 0.24 0.29 0.45 0.61 0.67 0.80 0.96 1.09 1.16 1.18 1.15 1.06 0.93 0.82 0.71 0.62 0.56 0.53 0.46 0.45 0.47 0.50
0.27 0.23 0.16 0.13 0.15 0.17 0.19 0.18 0.09 0.04 0.04 0.04 0.06 0.09 0.11 0.13 0.11 0.09 0.12 0.16 0.20 0.28 0.35 0.56 0.67 0.69 0.77 0.86 0.96 1.05 1.03 0.99 0.91 0.87 0.81 0.74 0.65 0.56 0.52 0.47 0.44 0.44 0.48
0.20 0.17 0.10 0.07 0.09 0.12 0.15 0.23 0.24 0.13 0.04 0.04 0.03 0.05 0.07 0.08 0.10 0.10 0.11 0.15 0.18 0.28 0.42 0.61 0.71 0.77 0.81 0.83 0.85 0.88 0.93 0.92 0.84 0.78 0.73 0.67 0.58 0.52 0.49 0.46 0.42 0.40 0.40
0.10 0.07 0.06 0.08 0.07 0.08 0.09 0.13 0.18 0.25 0.24 0.18 0.08 0.05 0.07 0.09 0.11 0.12 0.14 0.16 0.22 0.28 0.44 0.59 0.69 0.75 0.79 0.80 0.78 0.74 0.78 0.80 0.74 0.66 0.61 0.55 0.51 0.47 0.43 0.41 0.37 0.31 0.29
0.09 0.08 0.07 0.05 0.05 0.04 0.05 0.07 0.11 0.16 0.20 0.21 0.18 0.12 0.09 0.12 0.15 0.16 0.19 0.22 0.28 0.31 0.39 0.52 0.61 0.66 0.66 0.67 0.67 0.66 0.66 0.68 0.63 0.58 0.54 0.50 0.47 0.42 0.39 0.32 0.27 0.20 0.22
0.05 0.03 0.04 0.04 0.04 0.04 0.04 0.05 0.08 0.13 0.15 0.17 0.19 0.17 0.15 0.25 0.35 0.32 0.27 0.26 0.25 0.27 0.34 0.45 0.54 0.56 0.55 0.52 0.49 0.49 0.50 0.50 0.50 0.48 0.47 0.45 0.41 0.36 0.30 0.24 0.22 0.21 0.23
0.03 0.02 0.01 0.02 0.02 0.02 0.03 0.03 0.04 0.08 0.11 0.14 0.12 0.11 0.18 0.29 0.39 0.38 0.34 0.33 0.31 0.30 0.32 0.36 0.42 0.45 0.45 0.41 0.36 0.34 0.35 0.37 0.38 0.38 0.39 0.38 0.34 0.29 0.23 0.18 0.16 0.13 0.14
0.02 0.02 0.01 0.02 0.01 0.01 0.02 0.02 0.02 0.03 0.06 0.10 0.11 0.10 0.17 0.23 0.30 0.34 0.36 0.36 0.37 0.36 0.33 0.33 0.35 0.36 0.35 0.33 0.31 0.27 0.26 0.27 0.28 0.31 0.33 0.32 0.28 0.23 0.17 0.12 0.10 0.08 0.07
0.01 0.01 0.01 0.01 0.01 0.02 0.02 0.02 0.02 0.02 0.03 0.05 0.08 0.11 0.16 0.23 0.29 0.35 0.39 0.39 0.37 0.37 0.33 0.30 0.32 0.36 0.33 0.28 0.25 0.22 0.21 0.21 0.21 0.25 0.31 0.32 0.26 0.19 0.13 0.09 0.06 0.05 0.04
0.01 0.01 0.01 0.01 0.01 0.02 0.01 0.02 0.01 0.01 0.01 0.03 0.05 0.08 0.12 0.18 0.23 0.28 0.33 0.36 0.37 0.38 0.37 0.38 0.38 0.36 0.31 0.25 0.21 0.19 0.19 0.20 0.20 0.24 0.27 0.29 0.25 0.16 0.10 0.07 0.05 0.04 0.04
0.00 0.01 0.01 0.00 0.00 0.01 0.01 0.01 0.01 0.01 0.01 0.02 0.03 0.05 0.09 0.11 0.13 0.16 0.22 0.26 0.29 0.32 0.34 0.36 0.36 0.32 0.27 0.22 0.17 0.14 0.16 0.17 0.15 0.19 0.26 0.29 0.22 0.15 0.10 0.07 0.06 0.05 0.05
0.00 0.00 0.00 0.00 0.00 0.00 0.00 0.00 0.01 0.01 0.01 0.01 0.02 0.03 0.05 0.07 0.09 0.12 0.14 0.17 0.20 0.23 0.27 0.32 0.32 0.23 0.16 0.12 0.11 0.10 0.09 0.06 0.06 0.08 0.19 0.24 0.18 0.14 0.13 0.11 0.07 0.06 0.06